Flag for U.S.A. Weather past 2 weeks in Lexington, Virginia, U.S.A.

Now
77 °F

More clouds than sun.


Feels Like: 78 °F
Forecast: 70 / 85 °F
Wind: No wind

Location: Hot Springs / Ingalls

Current Time: Jul 28, 2015 at 6:07:37 PM

Latest Report: Jul 28, 2015 at 5:10 PM


Visibility: 10 mi

Pressure: 30.12 "Hg

Humidity: 75%

Dew point: 68 °F

Location of LexingtonLocation

Historic Weather in Lexington — Graph

°F

Lexington temperature yesterday

Maximum temperature yesterday: 79 °F (at 4:10 PM)
Minimum temperature yesterday: 68 °F (at 8:50 PM)
Average temperature yesterday: 72 °F

Past Weeks' High & Low Weather Summary

 TemperatureHumidityPressure
High82 °F (Jul 19, 5:10 PM)100% (Jul 13, 8:10 PM)30.21 "Hg (Jul 13, 8:10 PM)
Low59 °F (Jul 22, 6:10 AM)42% (Jul 25, 3:10 PM)29.73 "Hg (Jul 14, 10:10 PM)
Average69 °F83%30.06 "Hg
* Reported Jul 13 4:10 PM — Jul 28 4:50 PM, Lexington, Weather by CustomWeather, © 2015

Note: Actual official high and low records may vary slightly from our data, if they occured in-between our weather recording intervals... More about our weather records

Advertising

Lexington weather history for previous 24 hours

 ConditionsComfort  
Time TempWeatherWind HumidityBarometerVisibility
4:50 PM
Tue, Jul 28
76 °FMostly cloudy.No wind78%30.12 "Hg10 mi
4:30 PM76 °FBroken clouds.3 mph78%30.13 "Hg10 mi
4:10 PM77 °FScattered clouds.3 mph76%30.13 "Hg10 mi
3:50 PM78 °FScattered clouds.5 mph74%30.13 "Hg10 mi
3:30 PM76 °FMostly cloudy.3 mph78%30.14 "Hg10 mi
3:10 PM75 °FMostly cloudy.No wind82%30.14 "Hg10 mi
2:50 PM75 °FCloudy.No wind82%30.14 "Hg7 mi
2:10 PM74 °FMostly cloudy.7 mph82%30.15 "Hg10 mi
1:50 PM75 °FPartly sunny.5 mph79%30.16 "Hg10 mi
1:30 PM76 °FCloudy.7 mph80%30.16 "Hg10 mi
1:10 PM76 °FMostly cloudy.6 mph74%30.17 "Hg10 mi
12:50 PM73 °FMostly cloudy.5 mph91%30.17 "Hg10 mi
12:10 PM72 °FCloudy.6 mph93%30.18 "Hg7 mi
11:50 AM74 °FBroken clouds.No wind85%30.18 "Hg10 mi
11:30 AM73 °FBroken clouds.No wind87%30.18 "Hg10 mi
11:10 AM73 °FMore clouds than sun.No wind86%30.17 "Hg10 mi
10:50 AM73 °FMore clouds than sun.No wind89%30.17 "Hg10 mi
10:30 AM75 °FCloudy.3 mph81%30.17 "Hg10 mi
10:10 AM72 °FCloudy.No wind87%30.17 "Hg10 mi
9:50 AM72 °FFog.3 mph92%30.17 "Hg2 mi
9:30 AM70 °FLight rain. Low clouds.5 mph100%30.17 "Hg0 mi
9:10 AM74 °FScattered clouds.No wind81%30.17 "Hg10 mi
8:50 AM72 °FScattered clouds.3 mph90%30.17 "Hg10 mi
8:10 AM69 °FFog.3 mph97%30.17 "Hg0 mi
7:50 AM72 °FSunny.3 mph87%30.16 "Hg10 mi
7:30 AM70 °FSunny.3 mph93%30.15 "Hg10 mi
7:10 AM68 °FClear.3 mph100%30.15 "Hg7 mi
6:50 AM68 °FClear.3 mph100%30.15 "Hg7 mi
6:30 AM67 °FClear.5 mph100%30.15 "Hg7 mi
6:10 AM68 °FClear.3 mph100%30.15 "Hg7 mi
5:10 AM68 °FClear.No wind100%30.14 "Hg7 mi
4:50 AM68 °FClear.5 mph100%30.13 "Hg7 mi
4:30 AM67 °FFog.5 mph100%30.13 "Hg3 mi
4:10 AM68 °FFog.No wind100%30.13 "Hg5 mi
3:50 AM68 °FFog.3 mph100%30.14 "Hg4 mi
3:30 AM68 °FFog.3 mph100%30.14 "Hg5 mi
3:10 AM68 °FPassing clouds.5 mph100%30.15 "Hg7 mi
2:50 AM66 °FPassing clouds.7 mph100%30.15 "Hg7 mi
2:30 AM67 °FFog.6 mph100%30.16 "Hg1 mi
2:10 AM67 °FFog.7 mph100%30.17 "Hg0 mi
1:50 AM67 °FFog.6 mph100%30.18 "Hg1 mi
1:30 AM69 °FMostly cloudy.6 mph100%30.17 "Hg7 mi
1:10 AM69 °FFog.5 mph100%30.17 "Hg4 mi
12:50 AM70 °FFog.3 mph100%30.17 "Hg5 mi
12:30 AM70 °FFog.5 mph100%30.17 "Hg4 mi
12:10 AM70 °FFog.3 mph100%30.17 "Hg4 mi
11:50 PM
Mon, Jul 27
70 °FRain. Low clouds.No wind100%30.17 "Hg5 mi
11:30 PM70 °FMostly cloudy.No wind100%30.17 "Hg7 mi
11:10 PM69 °FThundershowers. Mostly cloudy.3 mph85%30.17 "Hg10 mi
10:50 PM69 °FOvercast.5 mph83%30.17 "Hg10 mi
10:30 PM68 °FOvercast.3 mph89%30.17 "Hg10 mi
10:10 PM68 °FOvercast.3 mph88%30.16 "Hg10 mi
9:50 PM69 °FMostly cloudy.8 mph95%30.15 "Hg10 mi
9:30 PM69 °FFog.8 mph100%30.14 "Hg2 mi
9:10 PM68 °FFog.7 mph100%30.14 "Hg5 mi
8:50 PM68 °FLight rain. Mostly cloudy.6 mph100%30.14 "Hg1 mi
8:10 PM69 °FBroken clouds.7 mph93%30.14 "Hg10 mi
7:50 PM71 °FBroken clouds.5 mph91%30.14 "Hg10 mi
7:30 PM74 °FOvercast.3 mph66%30.14 "Hg10 mi
7:10 PM74 °FMore clouds than sun.No wind66%30.13 "Hg10 mi
6:50 PM75 °FThundershowers. Overcast.3 mph65%30.13 "Hg10 mi
6:10 PM74 °FThundershowers. Scattered clouds.3 mph72%30.13 "Hg10 mi
Weather by CustomWeather, © 2015

See weather overviewHow to use our weather pages